Satellite: RS-30
Catalog number: 32953
Epoch time:      11342.64712826
Element set:     324
Inclination:      082.5030 deg
RA of node:       054.2510 deg
Eccentricity:    0.0018802
Arg of perigee:   009.9750 deg
Mean anomaly:     350.1704 deg
Mean motion:   12.43018134 rev/day
Decay rate:        1.0e-07 rev/day^2
Epoch rev:           16076
Checksum:              244

Satellite: TACSAT-3
Catalog number: 35001
Epoch time:      11342.86143488
Element set:     789
Inclination:      040.4485 deg
RA of node:       185.0060 deg
Eccentricity:    0.0008338
Arg of perigee:   034.6204 deg
Mean anomaly:     325.5110 deg
Mean motion:   15.62947682 rev/day
Decay rate:     8.4858e-04 rev/day^2
Epoch rev:           14425
Checksum:              299

Satellite: PHARMSAT
Catalog number: 35002
Epoch time:      11342.92112570
Element set:     730
Inclination:      040.4709 deg
RA of node:       184.8947 deg
Eccentricity:    0.0010885
Arg of perigee:   077.7949 deg
Mean anomaly:     282.4090 deg
Mean motion:   15.58857281 rev/day
Decay rate:     5.5316e-04 rev/day^2
Epoch rev:           14426
Checksum:              307

Satellite: HAWKSAT1
Catalog number: 35003
Epoch time:      11276.79285837
Element set:     811
Inclination:      040.4398 deg
RA of node:       174.3672 deg
Eccentricity:    0.0011414
Arg of perigee:   274.3918 deg
Mean anomaly:     085.3844 deg
Mean motion:   16.13812532 rev/day
Decay rate:   2.274821e-02 rev/day^2
Epoch rev:           13457
Checksum:              306

Satellite: CP6
Catalog number: 35004
Epoch time:      11247.64656856
Element set:     784
Inclination:      040.4403 deg
RA of node:       342.9642 deg
Eccentricity:    0.0002956
Arg of perigee:   038.0069 deg
Mean anomaly:     322.2231 deg
Mean motion:   16.41039951 rev/day
Decay rate:  1.6152067e-01 rev/day^2
Epoch rev:           13013
Checksum:              285

Satellite: METEOR-M
Catalog number: 35865
Epoch time:      11342.60124159
Element set:     966
Inclination:      098.6839 deg
RA of node:       035.2574 deg
Eccentricity:    0.0001679
Arg of perigee:   249.8325 deg
Mean anomaly:     110.2678 deg
Mean motion:   14.21850143 rev/day
Decay rate:        3.1e-07 rev/day^2
Epoch rev:           11537
Checksum:              298

Satellite: RS-38
Catalog number: 35869
Epoch time:      11342.71984713
Element set:     949
Inclination:      098.6813 deg
RA of node:       035.3966 deg
Eccentricity:    0.0003867
Arg of perigee:   245.1421 deg
Mean anomaly:     114.9346 deg
Mean motion:   14.22041941 rev/day
Decay rate:       1.13e-06 rev/day^2
Epoch rev:           11540
Checksum:              307

Satellite: ARISSAT1
Catalog number: 37772
Epoch time:      11342.51301127
Element set:     388
Inclination:      051.6349 deg
RA of node:       355.3173 deg
Eccentricity:    0.0007320
Arg of perigee:   085.8092 deg
Mean anomaly:     050.8257 deg
Mean motion:   15.88861535 rev/day
Decay rate:    3.59917e-03 rev/day^2
Epoch rev:            1981
Checksum:              312

Satellite: SRMSAT
Catalog number: 37839
Epoch time:      11341.46199373
Element set:    0046
Inclination:      019.9600 deg
RA of node:       085.7442 deg
Eccentricity:    0.0019087
Arg of perigee:   260.5245 deg
Mean anomaly:     099.3001 deg
Mean motion:   14.12002058 rev/day
Decay rate:       6.19e-06 rev/day^2
Epoch rev:           00797
Checksum:              289

Satellite: JUGNU
Catalog number: 37841
Epoch time:      11341.46720886
Element set:    0045
Inclination:      019.9709 deg
RA of node:       086.8232 deg
Eccentricity:    0.0012477
Arg of perigee:   235.1714 deg
Mean anomaly:     124.7517 deg
Mean motion:   14.10095160 rev/day
Decay rate:       2.64e-06 rev/day^2
Epoch rev:           00796
Checksum:              288

/EX


_______________________________________________
Via the Keps mailing list courtesy of AMSAT-NA
http://amsat.org/mailman/listinfo/keps

--- ViaMAIL!/WC v1.60d
 * Origin: Chowdanet (401-724-4410) telnet://chowdanet.com  (1:323/120)